User: anonymous   Login
Location: Bremen
(53.0833°N, 8.8000°E)
Time: 12:59:12
(UTC+02:00)
Language:

ISS - Orbit

View from above orbital plane
View from above orbital plane
View from above satellite
View from above satellite

Ground track
Ground track

The orbit data is extracted from the following two-line orbital elements,

1 25544U 98067A   25134.15405506  .00008594  00000-0  16106-3 0  9994
2 25544  51.6345 115.6637 0002291 108.2504 251.8734 15.49518201509885
Epoch (UTC): 14 May 2025 03:41:50
Eccentricity: 0.0002291
inclination: 51.6345°
perigee height: 416 km
apogee height: 419 km
right ascension of ascending node: 115.6637°
argument of perigee: 108.2504°
revolutions per day: 15.49518201
mean anomaly at epoch: 251.8734°
orbit number at epoch: 50988

The dashed part of the orbit path shows where the satellite is in the earth's shadow,  

DLR